Regional Weather Roundup
Issued by NWS

Home | Current Version | Previous Version | Text Only | Print | Product List | Glossary Off
Versions: 1 2 3 4 5 6 7 8 9 10 11 12 13 14 15 16 17 18 19 20 21 22 23 24 25 26 27 28 29 30 31 32 33 34 35 36 37 38 39 40 41 42 43 44 45 46 47 48 49 50

000
ASUS43 KLOT 191908
RWRIL

ILLINOIS REGIONAL WEATHER ROUNDUP
NATIONAL WEATHER SERVICE CHICAGO/ROMEOVILLE IL
200 PM CDT SAT AUG 19 2017

NOTE: "FAIR" INDICATES FEW OR NO CLOUDS BELOW 12,000 FEET WITH NO
SIGNIFICANT WEATHER AND/OR OBSTRUCTIONS TO VISIBILITY.

* THESE STATIONS ARE NOT UNDER NWS QUALITY CONTROL. THEY ALSO MAY NOT
  REPORT WEATHER SUCH AS PRECIPITATION OR FOG.

ILZ001-002-007-009-015-016-024-192000-
NORTHWEST ILLINOIS

CITY           SKY/WX    TMP DP  RH WIND       PRES   REMARKS
MOLINE         SUNNY     81  60  48 SE8       29.96F HX  82
STERLING*      SUNNY     80  62  54 VRB3      29.97F HX  81
SAVANNA*       SUNNY     79  61  52 W5        29.97F HX  80
$$

ILZ003-004-008-010-011-017-018-192000-
NORTH CENTRAL ILLINOIS

CITY           SKY/WX    TMP DP  RH WIND       PRES   REMARKS
ROCKFORD       MOSUNNY   80  60  50 W6        29.98F HX  81
FREEPORT*      SUNNY     77  60  54 CALM      29.99F
ROCHELLE*      MOSUNNY   77  63  60 CALM      29.99S
DE KALB*       SUNNY     78  60  53 N6        29.99S HX  80
PERU*          SUNNY     79  58  49 E6        29.98S HX  80
$$

ILZ005-006-012>014-019>023-192000-
NORTHEAST ILLINOIS

CITY           SKY/WX    TMP DP  RH WIND       PRES   REMARKS
CHICAGO-OHARE  MOSUNNY   83  53  35 VRB5      29.96S HX  82
CHICAGO-MIDWAY MOSUNNY   81  58  45 E9        29.96S HX  81
AURORA         MOSUNNY   81  60  48 VRB3      29.98S HX  82
LANSING*       SUNNY     81  53  38 CALM      29.98R HX  80
JOLIET*        SUNNY     82  59  45 S5        29.97S HX  82
WAUKEGAN       MOSUNNY   77  65  66 VRB6      29.96S
DUPAGE AIRPORT SUNNY     82  58  43 CALM      29.97S HX  82
KANKAKEE*      SUNNY     80  60  49 NE3       29.97F HX  81
WHEELING       SUNNY     82  57  42 VRB5      29.97S HX  82
MORRIS*        SUNNY     80  59  49 E5        29.96F HX  80
ROMEOVILLE*    SUNNY     81  54  38 S5        29.97F HX  81
NORTHERLY ISL    N/A     74  62  66 E5          N/A
$$

LMZ740>746-192000-
SOUTHERN LAKE MICHIGAN

STATION/POSITION SKY/WX   TEMP    WIND        PRES    VSBY  WAVE
                          AIR SEA DIR/SP/G                  HT/PER
                          (F)     (DEG/KT/KT) (MB)    (MI)  (FT/S)
SOUTHERN BUOY              69 72  290/  6/  6 1014.6          1
WILMETTE HARBOR            72 74  110/  6/  8   N/A           1/ 4
HARRISON CRIB              72      80/  3/  4   N/A
CALUMET HARBOR             72      40/  5/  8 1014.7R
BURNS HARBOR               71     350/  4/  5 1015.9R
MICHIGAN CITY              74     340/  5/  6   N/A
MICHIGAN CITY 6N           72 76  320/  2/  6   N/A           1/ 4
ST. JOSEPH                 72 78  320/  4/  6 1015.0          1/ 4
$$

ILZ025>027-034>036-040-047-049-050-058-095>099-192000-
WEST-CENTRAL ILLINOIS

CITY           SKY/WX    TMP DP  RH WIND       PRES   REMARKS
QUINCY         PTSUNNY   84  66  54 N3        29.95S HX  86
GALESBURG*     SUNNY     81  60  49 SE3       29.98S HX  81
MACOMB*        SUNNY     81  67  63 E6        29.99S HX  84
JACKSONVILLE*  MOSUNNY   86  68  55 W5        29.95S HX  89
PITTSFIELD*    SUNNY     86  69  57 W3        29.96S HX  89
$$

ILZ028>032-037-038-041>044-048-051>054-059>061-192000-
CENTRAL ILLINOIS

CITY           SKY/WX    TMP DP  RH WIND       PRES   REMARKS
PONTIAC        SUNNY     81  57  43 CALM      29.98S HX  81
BLOOMINGTON    SUNNY     81  64  56 E6        29.98F HX  82
DECATUR        SUNNY     83  68  60 CALM      29.95F HX  86
PEORIA         SUNNY     83  57  41 CALM      29.96F HX  82
LACON*         SUNNY     81  61  50 SE3       29.96F HX  82
LINCOLN*       SUNNY     83  69  62 CALM      29.96S HX  87
SPRINGFIELD    PTSUNNY   88  72  58 W7        29.95S HX  94
TAYLORVILLE    MOSUNNY   84  69  60 W6        29.95S HX  88
$$

ILZ033-039-045-046-055>057-062-063-192000-
EAST-CENTRAL ILLINOIS

CITY           SKY/WX    TMP DP  RH WIND       PRES   REMARKS
CHAMPAIGN      MOSUNNY   88  63  43 VRB5      29.96F HX  89
RANTOUL*       MOSUNNY   84  63  48 CALM      29.96F HX  85
MATTOON        MOSUNNY   85  71  63 VRB5      29.94F HX  90
PARIS*         SUNNY     86  70  58 SW3       29.96S HX  91
$$

ILZ079-100>102-192000-
SOUTHWEST ILLINOIS

CITY           SKY/WX    TMP DP  RH WIND       PRES   REMARKS
ALTON          MOSUNNY   86  72  62 VRB5      29.95F HX  92
BELLEVILLE     MOSUNNY   88  72  58 S7        29.96S HX  94
CAHOKIA*       SUNNY     90  68  48 SW5       29.94F HX  94
SPARTA*        SUNNY     87  70  57 CALM      29.96F HX  91
$$

ILZ064>066-069>071-074>076-080>082-084>086-088>090-092>094-192000-
SOUTH-CENTRAL ILLINOIS

CITY           SKY/WX    TMP DP  RH WIND       PRES   REMARKS
CARBONDALE     SUNNY     86  71  60 SW3       29.95F HX  91
CAIRO*         MOSUNNY   89  75  62 SW6       29.95S HX  99
EFFINGHAM*     CLOUDY    86  71  60 S7        29.96S HX  91
MARION         SUNNY     88  72  58 SW5       29.97S HX  94
MT. VERNON       N/A     87  72  60 SW10G16   29.96S HX  93
CENTRALIA*     MOSUNNY   87  73  61 SW5       29.95S HX  94
SALEM*         SUNNY     90  69  51 W8        29.95S HX  94
METROPOLIS*    RAIN      90  71  54 CALM      29.96S HX  96
$$

ILZ067-068-072-073-078-083-087-091-192000-
SOUTHEAST ILLINOIS

CITY           SKY/WX    TMP DP  RH WIND       PRES   REMARKS
LAWRENCEVILLE  MOSUNNY   89  68  49 SW6       29.94S HX  93
FLORA*         MOSUNNY   87  71  60 S8        29.96R HX  92
FAIRFIELD*     SUNNY     85  71  62 CALM      29.94F HX  91
HARRISBURG*    SUNNY     88  70  56 CALM      29.96S HX  93
ROBINSON*      MOSUNNY   84  70  61 CALM      29.94F HX  88
CARMI*         SUNNY     84  74  72 SW6       29.95S HX  91
$$

ABBREVIATIONS USED IN REMARKS
   TC - TEMPERATURE IN CELSIUS
  WCI - WIND CHILL INDEX
   HX - HEAT INDEX
  VSB - VISIBILITY
$$





USA.gov is the U.S. government's official web portal to all federal, state and local government web resources and services.